[ hide orbit diagram ]
For accurate long-term ephemerides, please instead use our Horizons system.This orbit viewer was implemented using two-body methods, and hence should not be used for determining accurate long-term trajectories (over several years or decades) or planetary encounter circumstances.
Orbital Elements at Epoch 2459000.5 (2020-May-31.0) TDB
Reference: JPL 20 (heliocentric ecliptic J2000)
Element | Value | Uncertainty (1-sigma) | Units |
e | .1209752741512749 | 4.9481e-08 | |
a | 2.545472693338607 | 2.7631e-08 | au |
q | 2.237533436417385 | 1.4138e-07 | au |
i | 3.252497252316267 | 5.6864e-06 | deg |
node | 97.15294132204912 | 0.00012814 | deg |
peri | 232.4171534774493 | 0.00013331 | deg |
M | 279.6955675736232 | 3.6684e-05 | deg |
tp | 2459331.393401504230 (2021-Apr-26.89340150) | 0.00014997 | TDB |
period | 1483.375461880435 4.06 | 2.4153e-05 6.613e-08 | d yr |
n | .2426897365173062 | 3.9516e-09 | deg/d |
Q | 2.853411950259829 | 3.0974e-08 | au |
|
| | Orbit Determination Parameters
Additional Information
|
[ hide covariance matrix ]
Orbital Elements at Epoch 2457962.5 (2017-Jul-28.0) TDB
Reference: JPL 20 (heliocentric ecliptic J2000)
Element | Value | Uncertainty (1-sigma) | Units |
e | .1203570409298017 | 4.9636e-08 | |
q | 2.239712005361595 | 1.4179e-07 | au |
tp | 2457848.594058888000 (2017-Apr-05.09405889) | 0.00015752 | TDB |
node | 97.15478989905692 | 0.00012815 | deg |
peri | 232.5938555840972 | 0.00013337 | deg |
i | 3.252163701782356 | 5.6864e-06 | deg |
|
| | Orbit Determination Parameters
Additional Information
|
Orbit Covariance (6×6)
|
|
e |
q |
tp |
node |
peri |
i |
e |
2.463700308102529E-15 |
-6.968153911243746E-15 |
4.512594692916008E-12 |
2.787403472866487E-14 |
1.093444651410355E-12 |
-3.191047413730799E-15 |
q |
-6.968153911243746E-15 |
2.010571344608138E-14 |
-1.28256435263273E-11 |
-7.843467843547368E-14 |
-3.097667211841278E-12 |
9.516162982470605E-15 |
tp |
4.512594692916008E-12 |
-1.28256435263273E-11 |
2.481249761135383E-8 |
2.29673714363866E-10 |
5.905839920482007E-9 |
-1.467983638371113E-11 |
node |
2.787403472866487E-14 |
-7.843467843547368E-14 |
2.29673714363866E-10 |
1.642153524842327E-8 |
-1.63387154608735E-8 |
-4.412605551169285E-10 |
peri |
1.093444651410355E-12 |
-3.097667211841278E-12 |
5.905839920482007E-9 |
-1.63387154608735E-8 |
1.778652362542844E-8 |
4.369902072994104E-10 |
i |
-3.191047413730799E-15 |
9.516162982470605E-15 |
-1.467983638371113E-11 |
-4.412605551169285E-10 |
4.369902072994104E-10 |
3.233533164295743E-11 |
|
Physical Parameter Table
Parameter |
Symbol |
Value |
Units |
Sigma |
Reference |
Notes |
absolute magnitude |
H |
17.11 |
|
n/a |
E2021B25 |
|
|
382366 (2013 TP98) Discovered 2005-Oct-25 by CSS at Catalina |
Reference: | Last Updated: 2013-12-19 |
|
Alternate Designations
2013 TP98 = 2005 UV404 = 2007 DE115 |
|
|